[Iaude] MPEC J173: 2024 JU3 [a=28.45,e=0.88,i=158.2,H=16.7]

mpec at cfa.harvard.edu mpec at cfa.harvard.edu
Wed May 8 13:06:06 EDT 2024


M.P.E.C. 2024-J173                                  Issued 2024 May 8, 17:04 UT

     The Minor Planet Electronic Circulars contain information on unusual
         minor planets, routine data on comets and natural satellites,
         and occasional editorial announcements.  They are published
    on behalf of Division F of the International Astronomical Union by the
          Minor Planet Center, Smithsonian Astrophysical Observatory,
                          Cambridge, MA 02138, U.S.A.
			  
             Prepared using the Tamkin Foundation Computer Network

                              MPC at CFA.HARVARD.EDU
            URL https://www.minorplanetcenter.net/    ISSN 1523-6714

                                    2024 JU3                                    


Observations:
     K24J03U* C2024 05 02.53422615 03 20.638+14 36 51.81         21.83wXEJ173F51
     K24J03U  C2024 05 02.55858915 03 16.596+14 37 10.77         21.64wXEJ173F51
     K24J03U  C2024 05 02.57086515 03 14.537+14 37 20.78         21.64wXEJ173F51
     K24J03U KC2024 05 03.40141815 00 57.902+14 48 07.63         21.19GVEJ173I52
     K24J03U KC2024 05 03.40359515 00 57.470+14 48 10.19         22.34GVEJ173I52
     K24J03U KC2024 05 03.40577215 00 57.143+14 48 11.77         22.32GVEJ173I52
     K24J03U KC2024 05 03.40794915 00 56.736+14 48 13.28         21.53GVEJ173I52
     K24J03U KC2024 05 04.20146714 58 46.110+14 58 18.30         21.33GVEJ173I52
     K24J03U KC2024 05 04.20610814 58 45.280+14 58 22.40               VEJ173I52
     K24J03U KC2024 05 04.21074414 58 44.450+14 58 27.00         21.69GVEJ173I52
     K24J03U KC2024 05 04.21538014 58 43.690+14 58 31.40         21.36GVEJ173I52
     K24J03U !C2024 05 04.31812 14 58 26.69 +14 59 47.4          21.2 GVEJ173673
     K24J03U !C2024 05 04.32562 14 58 25.47 +14 59 53.1                VEJ173673
     K24J03U  C2024 05 08.48028514 47 00.086+15 48 55.99         21.88wXEJ173F52
     K24J03U  C2024 05 08.50661614 46 55.719+15 49 13.31         21.99wXEJ173F52
     K24J03U  C2024 05 08.51979114 46 53.536+15 49 21.96         22.39wXEJ173F52

Observer details:
673 Table Mountain Observatory, Wrightwood.  Observer J. Pittichova.  1.0-m
    f/15 reflector + CCD.
F51 Pan-STARRS 1, Haleakala.  Observers J. Herman, T. Lowe, P. Minguez, A.
    Schultz, I. Smith.  Measurers K. Chambers, T. de Boer, J. Fairlamb, H.
    Gao, M. Huber, C.-C. Lin, E. Magnier, Y. Ramanjooloo, R. Wainscoat, R.
    Weryk.  1.8-m Ritchey-Chretien + CCD.
F52 Pan-STARRS 2, Haleakala.  Observers J. Herman, T. Lowe, P. Minguez, A.
    Schultz, I. Smith.  Measurers K. Chambers, T. de Boer, J. Fairlamb, H.
    Gao, M. Huber, C.-C. Lin, E. Magnier, Y. Ramanjooloo, R. Wainscoat, R.
    Weryk.  1.8-m Ritchey-Chretien + CCD.
I52 Steward Observatory, Mt. Lemmon Station.  Observer V. F. Carvajal.
    Measurers T. Beuden, V. F. Carvajal, D. Fay, J. B. Fazekas, D. C. Fuls, A.
    R. Gibbs, A. D. Grauer, H. Groeller, J. K. Hogan, R. A. Kowalski, S. M.
    Larson, G. J. Leonard, D. Rankin, R. L. Seaman, F. C. Shelly, K. W.
    Wierzchos.  1.0-m prime focus + CCD.

Orbital elements:
2024 JU3                                                                        
Epoch 2024 Mar. 31.0 TT = JDT 2460400.5                 Bell                    
M 359.76032              (2000.0)            P               Q                  
n   0.00649617     Peri.   87.40858     -0.72481390     -0.61978343             
a  28.4466542      Node   305.90043     -0.68018697     +0.71317049             
e   0.8819061      Incl.  158.19752     +0.10950109     +0.32750015             
P 152              H   16.72          G   0.15           U   9                  
Residuals in seconds of arc
240502 F51  0.0   0.0     240503 I52  0.1-  0.1-    240504 673  0.6-  0.2-
240502 F51  0.0   0.2-    240504 I52  0.2-  1.2-    240508 F52  0.0   0.0
240502 F51  0.4-  0.2+    240504 I52  1.1-  0.6-    240508 F52  0.0   0.0
240503 I52  1.1+  0.7-    240504 I52  1.9-  0.4+    240508 F52  0.0   0.0
240503 I52  0.1+  0.2+    240504 I52  1.8-  1.3+
240503 I52  0.5+  0.1+    240504 673  1.0-  0.2-

Ephemeris:
2024 JU3                 a,e,i = 28.45, 0.88, 158                q = 3.3594
Date    TT    R. A. (2000) Decl.     Delta      r    Elong.  Phase     V
2024 04 08    16 04 16.1 +08 10 33   2.6019  3.3690   133.4    12.5    22.2
...
2024 04 23    15 28 54.9 +12 18 23   2.4713  3.3616   147.3     9.3    21.9
...
2024 05 01    15 07 32.8 +14 16 18   2.4526  3.3598   149.5     8.8    21.9
...
2024 05 07    14 51 04.2 +15 32 11   2.4633  3.3594   147.6     9.3    21.9
2024 05 08    14 48 19.4 +15 43 35   2.4672  3.3594   147.1     9.4    21.9
2024 05 09    14 45 34.9 +15 54 37   2.4716  3.3594   146.4     9.6    21.9
...
2024 05 15    14 29 21.8 +16 52 26   2.5097  3.3601   141.5    10.8    22.0
...
2024 05 23    14 08 52.8 +17 47 07   2.5894  3.3624   133.0    12.7    22.2
...
2024 06 07    13 36 09.5 +18 27 11   2.8109  3.3705   115.2    15.8    22.5

M. P. C. Staff               (C) Copyright 2024 MPC           M.P.E.C. 2024-J173





More information about the Iaude mailing list